Time,TemperatureF,DewpointF,PressureIn,WindDirection,WindDirectionDegrees,WindSpeedMPH,WindSpeedGustMPH,Humidity,HourlyPrecipIn,Conditions,Clouds,dailyrainin,SoftwareType,DateUTC
2013-03-13 00:00:00,70.0,67.8,29.89,West,270,2.0,4.0,93,0.00,,,0.00,meteohub,2013-03-13 04:00:00,
2013-03-13 00:03:00,69.8,67.6,29.89,SW,225,1.0,4.0,93,0.00,,,0.00,meteohub,2013-03-13 04:03:00,
2013-03-13 00:07:00,69.8,67.6,29.89,SW,225,2.0,4.0,93,0.00,,,0.00,meteohub,2013-03-13 04:07:00,
2013-03-13 00:12:00,69.8,67.6,29.89,NW,315,2.0,4.0,93,0.00,,,0.00,meteohub,2013-03-13 04:12:00,
2013-03-13 00:17:00,69.6,67.5,29.88,West,270,2.0,4.0,93,0.00,,,0.00,meteohub,2013-03-13 04:17:00,
2013-03-13 00:22:00,69.6,67.5,29.88,SW,225,3.0,4.0,93,0.00,,,0.00,meteohub,2013-03-13 04:22:00,
2013-03-13 00:27:00,69.6,67.5,29.88,West,270,1.0,3.0,93,0.00,,,0.00,meteohub,2013-03-13 04:27:00,
2013-03-13 00:32:00,69.6,67.5,29.88,West,270,1.0,3.0,93,0.00,,,0.00,meteohub,2013-03-13 04:32:00,
2013-03-13 00:37:00,69.6,67.5,29.88,West,270,1.0,3.0,93,0.00,,,0.00,meteohub,2013-03-13 04:37:00,
2013-03-13 00:42:00,69.6,67.5,29.88,North,0,2.0,2.0,93,0.00,,,0.00,meteohub,2013-03-13 04:42:00,
2013-03-13 00:47:00,69.6,67.5,29.88,West,270,1.0,2.0,93,0.00,,,0.00,meteohub,2013-03-13 04:47:00,
2013-03-13 00:53:00,69.6,67.8,29.88,West,270,1.0,2.0,94,0.00,,,0.00,meteohub,2013-03-13 04:53:00,
2013-03-13 00:58:00,69.6,67.8,29.88,West,270,2.0,2.0,94,0.00,,,0.00,meteohub,2013-03-13 04:58:00,
2013-03-13 01:03:00,69.6,67.8,29.88,SW,225,4.0,4.0,94,0.00,,,0.00,meteohub,2013-03-13 05:03:00,
2013-03-13 01:08:00,69.8,68.0,29.89,SW,225,2.0,4.0,94,0.00,,,0.00,meteohub,2013-03-13 05:08:00,
2013-03-13 01:14:00,69.8,68.0,29.88,SW,225,2.0,4.0,94,0.00,,,0.00,meteohub,2013-03-13 05:14:00,
2013-03-13 01:19:00,69.8,67.6,29.88,SW,225,1.0,4.0,93,0.00,,,0.00,meteohub,2013-03-13 05:19:00,
2013-03-13 01:24:00,69.8,67.6,29.88,West,270,1.0,3.0,93,0.00,,,0.00,meteohub,2013-03-13 05:24:00,
2013-03-13 01:29:00,69.8,67.6,29.88,South,180,1.0,2.0,93,0.00,,,0.00,meteohub,2013-03-13 05:29:00,
2013-03-13 01:34:00,69.6,67.5,29.88,NW,315,2.0,2.0,93,0.00,,,0.00,meteohub,2013-03-13 05:34:00,
2013-03-13 01:39:00,69.6,67.8,29.88,NW,315,1.0,2.0,94,0.00,,,0.00,meteohub,2013-03-13 05:39:00,
2013-03-13 01:44:00,69.6,67.8,29.88,SW,225,2.0,2.0,94,0.00,,,0.00,meteohub,2013-03-13 05:44:00,
2013-03-13 01:50:00,69.6,67.8,29.89,West,270,6.0,6.0,94,0.00,,,0.00,meteohub,2013-03-13 05:50:00,
2013-03-13 01:55:00,69.4,67.3,29.88,SW,225,3.0,6.0,93,0.00,,,0.00,meteohub,2013-03-13 05:55:00,
2013-03-13 02:00:00,69.4,67.3,29.88,NW,315,4.0,8.0,93,0.00,,,0.00,meteohub,2013-03-13 06:00:00,
2013-03-13 02:05:00,69.1,67.3,29.89,North,0,4.0,8.0,94,0.00,,,0.00,meteohub,2013-03-13 06:05:00,
2013-03-13 02:10:00,68.9,67.1,29.89,West,270,5.0,8.0,94,0.00,,,0.00,meteohub,2013-03-13 06:10:00,
2013-03-13 02:16:00,68.7,66.9,29.88,West,270,4.0,8.0,94,0.00,,,0.00,meteohub,2013-03-13 06:16:00,
2013-03-13 02:21:00,68.5,67.1,29.88,SW,225,2.0,6.0,95,0.00,,,0.00,meteohub,2013-03-13 06:21:00,
2013-03-13 02:26:00,68.4,67.1,29.88,North,0,4.0,6.0,96,0.00,,,0.00,meteohub,2013-03-13 06:26:00,
2013-03-13 02:32:00,68.2,66.9,29.88,West,270,3.0,6.0,96,0.00,,,0.00,meteohub,2013-03-13 06:32:00,
2013-03-13 02:37:00,68.0,66.7,29.88,NW,315,2.0,6.0,96,0.00,,,0.00,meteohub,2013-03-13 06:37:00,
2013-03-13 02:42:00,68.0,66.7,29.88,West,270,3.0,5.0,96,0.00,,,0.00,meteohub,2013-03-13 06:42:00,
2013-03-13 02:47:00,67.6,66.2,29.88,North,0,5.0,9.0,95,0.00,,,0.00,meteohub,2013-03-13 06:47:00,
2013-03-13 02:52:00,67.3,65.8,29.88,North,0,5.0,9.0,95,0.00,,,0.00,meteohub,2013-03-13 06:52:00,
2013-03-13 02:57:00,67.1,65.8,29.88,NW,315,2.0,9.0,96,0.00,,,0.00,meteohub,2013-03-13 06:57:00,
2013-03-13 03:03:00,66.9,65.7,29.88,West,270,1.0,8.0,96,0.00,,,0.00,meteohub,2013-03-13 07:03:00,
2013-03-13 03:08:00,66.9,65.7,29.88,South,180,7.0,8.0,96,0.00,,,0.00,meteohub,2013-03-13 07:08:00,
2013-03-13 03:13:00,66.7,65.5,29.87,NW,315,2.0,8.0,96,0.00,,,0.00,meteohub,2013-03-13 07:13:00,
2013-03-13 03:18:00,66.6,65.3,29.87,West,270,4.0,8.0,96,0.00,,,0.00,meteohub,2013-03-13 07:18:00,
2013-03-13 03:23:00,66.4,65.1,29.87,West,270,2.0,8.0,96,0.00,,,0.00,meteohub,2013-03-13 07:23:00,
2013-03-13 03:28:00,66.4,65.1,29.87,West,270,8.0,8.0,96,0.00,,,0.00,meteohub,2013-03-13 07:28:00,
2013-03-13 03:34:00,66.2,64.9,29.87,NW,315,3.0,7.0,96,0.00,,,0.00,meteohub,2013-03-13 07:34:00,
2013-03-13 03:39:00,66.0,64.8,29.87,SW,225,5.0,8.0,96,0.00,,,0.00,meteohub,2013-03-13 07:39:00,
2013-03-13 03:44:00,65.5,63.3,29.87,WNW,293,7.0,8.0,93,0.00,,,0.00,meteohub,2013-03-13 07:44:00,
2013-03-13 03:49:00,64.9,61.9,29.87,NW,315,8.0,8.0,90,0.00,,,0.00,meteohub,2013-03-13 07:49:00,
2013-03-13 03:54:00,64.8,61.5,29.86,North,0,6.0,11.0,89,0.00,,,0.00,meteohub,2013-03-13 07:54:00,
2013-03-13 04:00:00,64.8,61.7,29.86,NE,45,2.0,11.0,90,0.00,,,0.00,meteohub,2013-03-13 08:00:00,
2013-03-13 04:08:00,64.6,61.5,29.87,West,270,6.0,8.0,90,0.00,,,0.00,meteohub,2013-03-13 08:08:00,
2013-03-13 04:13:00,64.2,61.0,29.87,North,0,7.0,8.0,89,0.00,,,0.00,meteohub,2013-03-13 08:13:00,
2013-03-13 04:18:00,63.9,60.8,29.87,NW,315,11.0,11.0,90,0.00,,,0.00,meteohub,2013-03-13 08:18:00,
2013-03-13 04:23:00,63.5,60.4,29.88,NW,315,3.0,11.0,90,0.00,,,0.00,meteohub,2013-03-13 08:23:00,
2013-03-13 04:29:00,63.0,59.9,29.88,North,0,6.0,11.0,90,0.00,,,0.00,meteohub,2013-03-13 08:29:00,
2013-03-13 04:34:00,62.4,59.7,29.88,NW,315,5.0,11.0,91,0.00,,,0.00,meteohub,2013-03-13 08:34:00,
2013-03-13 04:39:00,62.1,59.4,29.88,North,0,6.0,8.0,91,0.00,,,0.00,meteohub,2013-03-13 08:39:00,
2013-03-13 04:44:00,61.7,59.0,29.88,NW,315,4.0,8.0,91,0.00,,,0.00,meteohub,2013-03-13 08:44:00,
2013-03-13 04:49:00,61.3,58.6,29.88,South,180,2.0,9.0,91,0.00,,,0.00,meteohub,2013-03-13 08:49:00,
2013-03-13 04:55:00,61.3,58.6,29.89,West,270,2.0,9.0,91,0.00,,,0.00,meteohub,2013-03-13 08:55:00,
2013-03-13 05:00:00,61.2,58.5,29.88,West,270,4.0,9.0,91,0.00,,,0.00,meteohub,2013-03-13 09:00:00,
2013-03-13 05:05:00,61.0,58.3,29.88,NW,315,6.0,8.0,91,0.00,,,0.00,meteohub,2013-03-13 09:05:00,
2013-03-13 05:10:00,60.4,58.1,29.90,NW,315,7.0,8.0,92,0.00,,,0.00,meteohub,2013-03-13 09:10:00,
2013-03-13 05:15:00,60.3,57.9,29.89,NW,315,5.0,9.0,92,0.00,,,0.00,meteohub,2013-03-13 09:15:00,
2013-03-13 05:20:00,60.1,57.7,29.89,West,270,5.0,9.0,92,0.00,,,0.00,meteohub,2013-03-13 09:20:00,
2013-03-13 05:25:00,59.9,57.6,29.89,NW,315,8.0,8.0,92,0.00,,,0.00,meteohub,2013-03-13 09:25:00,
2013-03-13 05:30:00,59.7,57.7,29.89,NW,315,5.0,8.0,93,0.00,,,0.00,meteohub,2013-03-13 09:30:00,
2013-03-13 05:35:00,59.4,57.4,29.90,NW,315,4.0,8.0,93,0.00,,,0.00,meteohub,2013-03-13 09:35:00,
2013-03-13 05:41:00,59.0,57.2,29.89,NW,315,4.0,8.0,94,0.00,,,0.00,meteohub,2013-03-13 09:41:00,
2013-03-13 05:46:00,58.8,57.4,29.90,North,0,6.0,6.0,95,0.00,,,0.00,meteohub,2013-03-13 09:46:00,
2013-03-13 05:51:00,58.6,57.2,29.90,North,0,4.0,6.0,95,0.00,,,0.00,meteohub,2013-03-13 09:51:00,
2013-03-13 05:56:00,58.5,57.4,29.90,WNW,293,3.0,6.0,96,0.00,,,0.00,meteohub,2013-03-13 09:56:00,
2013-03-13 06:01:00,58.3,57.2,29.90,West,270,7.0,7.0,96,0.00,,,0.00,meteohub,2013-03-13 10:01:00,
2013-03-13 06:06:00,58.1,57.2,29.90,NW,315,2.0,7.0,97,0.00,,,0.00,meteohub,2013-03-13 10:06:00,
2013-03-13 06:11:00,57.9,57.0,29.91,North,0,4.0,7.0,97,0.00,,,0.00,meteohub,2013-03-13 10:11:00,
2013-03-13 06:16:00,57.7,57.2,29.91,NW,315,2.0,7.0,98,0.00,,,0.00,meteohub,2013-03-13 10:16:00,
2013-03-13 06:22:00,57.7,57.4,29.91,NW,315,7.0,7.0,99,0.00,,,0.00,meteohub,2013-03-13 10:22:00,
2013-03-13 06:27:00,57.9,57.6,29.91,NW,315,4.0,7.0,99,0.00,,,0.00,meteohub,2013-03-13 10:27:00,
2013-03-13 06:32:00,58.1,57.7,29.91,NW,315,7.0,7.0,99,0.00,,,0.00,meteohub,2013-03-13 10:32:00,
2013-03-13 06:37:00,58.1,57.7,29.91,North,0,8.0,8.0,99,0.00,,,0.00,meteohub,2013-03-13 10:37:00,
2013-03-13 06:42:00,58.1,57.7,29.91,NW,315,4.0,8.0,99,0.00,,,0.00,meteohub,2013-03-13 10:42:00,
2013-03-13 06:47:00,58.1,57.7,29.91,North,0,5.0,10.0,99,0.00,,,0.00,meteohub,2013-03-13 10:47:00,
2013-03-13 06:52:00,57.9,57.6,29.92,NW,315,4.0,10.0,99,0.00,,,0.00,meteohub,2013-03-13 10:52:00,
2013-03-13 06:57:00,57.9,57.6,29.92,North,0,5.0,10.0,99,0.00,,,0.00,meteohub,2013-03-13 10:57:00,
2013-03-13 07:02:00,57.7,57.4,29.92,North,0,6.0,9.0,99,0.00,,,0.00,meteohub,2013-03-13 11:02:00,
2013-03-13 07:07:00,57.7,57.4,29.92,West,270,5.0,8.0,99,0.00,,,0.00,meteohub,2013-03-13 11:07:00,
2013-03-13 07:12:00,57.6,57.2,29.93,NW,315,2.0,7.0,99,0.00,,,0.00,meteohub,2013-03-13 11:12:00,
2013-03-13 07:17:00,57.4,57.0,29.93,North,0,4.0,6.0,99,0.00,,,0.00,meteohub,2013-03-13 11:17:00,
2013-03-13 07:23:00,57.4,57.0,29.92,North,0,5.0,8.0,99,0.00,,,0.00,meteohub,2013-03-13 11:23:00,
2013-03-13 07:28:00,57.2,56.8,29.92,NW,315,4.0,8.0,99,0.00,,,0.00,meteohub,2013-03-13 11:28:00,
2013-03-13 07:33:00,57.2,56.8,29.92,North,0,4.0,8.0,99,0.00,,,0.00,meteohub,2013-03-13 11:33:00,
2013-03-13 07:38:00,57.0,56.7,29.93,North,0,2.0,8.0,99,0.00,,,0.00,meteohub,2013-03-13 11:38:00,
2013-03-13 07:43:00,56.8,56.5,29.94,North,0,4.0,8.0,99,0.00,,,0.00,meteohub,2013-03-13 11:43:00,
2013-03-13 07:49:00,57.0,56.7,29.94,NW,315,6.0,8.0,99,0.00,,,0.00,meteohub,2013-03-13 11:49:00,
2013-03-13 07:54:00,57.0,56.7,29.94,NW,315,8.0,8.0,99,0.00,,,0.00,meteohub,2013-03-13 11:54:00,
2013-03-13 07:59:00,57.0,56.7,29.94,West,270,7.0,8.0,99,0.00,,,0.00,meteohub,2013-03-13 11:59:00,
2013-03-13 08:04:00,57.2,56.8,29.94,NW,315,4.0,8.0,99,0.00,,,0.00,meteohub,2013-03-13 12:04:00,
2013-03-13 08:09:00,57.4,57.0,29.95,WNW,293,3.0,8.0,99,0.00,,,0.00,meteohub,2013-03-13 12:09:00,
2013-03-13 08:14:00,57.7,57.2,29.94,West,270,2.0,7.0,98,0.00,,,0.00,meteohub,2013-03-13 12:14:00,
2013-03-13 08:19:00,57.7,56.8,29.95,West,270,3.0,7.0,97,0.00,,,0.00,meteohub,2013-03-13 12:19:00,
2013-03-13 08:24:00,58.3,57.2,29.94,North,0,3.0,5.0,96,0.00,,,0.00,meteohub,2013-03-13 12:24:00,
2013-03-13 08:29:00,58.8,57.4,29.95,North,0,6.0,8.0,95,0.00,,,0.00,meteohub,2013-03-13 12:29:00,
2013-03-13 08:34:00,58.8,57.0,29.95,NW,315,3.0,8.0,94,0.00,,,0.00,meteohub,2013-03-13 12:34:00,
2013-03-13 08:39:00,58.8,56.8,29.96,North,0,3.0,8.0,93,0.00,,,0.00,meteohub,2013-03-13 12:39:00,
2013-03-13 08:45:00,59.0,56.7,29.95,West,270,4.0,8.0,92,0.00,,,0.00,meteohub,2013-03-13 12:45:00,
2013-03-13 08:50:00,59.2,56.8,29.96,North,0,6.0,8.0,92,0.00,,,0.00,meteohub,2013-03-13 12:50:00,
2013-03-13 08:55:00,59.4,56.7,29.96,North,0,4.0,8.0,91,0.00,,,0.00,meteohub,2013-03-13 12:55:00,
2013-03-13 09:00:00,60.1,57.2,29.95,NW,315,2.0,6.0,90,0.00,,,0.00,meteohub,2013-03-13 13:00:00,
2013-03-13 09:05:00,60.4,56.5,29.96,West,270,6.0,6.0,87,0.00,,,0.00,meteohub,2013-03-13 13:05:00,
2013-03-13 09:11:00,60.4,56.3,29.97,West,270,4.0,6.0,86,0.00,,,0.00,meteohub,2013-03-13 13:11:00,
2013-03-13 09:16:00,60.4,55.9,29.97,North,0,5.0,6.0,85,0.00,,,0.00,meteohub,2013-03-13 13:16:00,
2013-03-13 09:21:00,60.6,56.1,29.97,NW,315,5.0,7.0,85,0.00,,,0.00,meteohub,2013-03-13 13:21:00,
2013-03-13 09:26:00,61.2,56.7,29.97,North,0,2.0,8.0,85,0.00,,,0.00,meteohub,2013-03-13 13:26:00,
2013-03-13 09:32:00,61.5,56.3,29.97,North,0,2.0,8.0,83,0.00,,,0.00,meteohub,2013-03-13 13:32:00,
2013-03-13 09:37:00,61.3,55.8,29.97,West,270,6.0,8.0,82,0.00,,,0.00,meteohub,2013-03-13 13:37:00,
2013-03-13 09:42:00,61.7,56.5,29.97,WNW,293,7.0,8.0,83,0.00,,,0.00,meteohub,2013-03-13 13:42:00,
2013-03-13 09:47:00,62.6,56.7,29.98,North,0,2.0,9.0,81,0.00,,,0.00,meteohub,2013-03-13 13:47:00,
2013-03-13 09:52:00,63.9,57.2,29.98,North,0,7.0,9.0,79,0.00,,,0.00,meteohub,2013-03-13 13:52:00,
2013-03-13 09:57:00,64.4,57.0,29.98,NW,315,6.0,9.0,77,0.00,,,0.00,meteohub,2013-03-13 13:57:00,
2013-03-13 10:02:00,64.0,56.3,29.97,NW,315,9.0,9.0,76,0.00,,,0.00,meteohub,2013-03-13 14:02:00,
2013-03-13 10:07:00,64.6,57.2,29.97,North,0,4.0,9.0,77,0.00,,,0.00,meteohub,2013-03-13 14:07:00,
2013-03-13 10:12:00,65.8,57.4,29.98,NW,315,5.0,9.0,74,0.00,,,0.00,meteohub,2013-03-13 14:12:00,
2013-03-13 10:17:00,66.0,57.2,29.98,North,0,8.0,9.0,73,0.00,,,0.00,meteohub,2013-03-13 14:17:00,
2013-03-13 10:22:00,65.8,57.0,29.98,North,0,4.0,8.0,73,0.00,,,0.00,meteohub,2013-03-13 14:22:00,
2013-03-13 10:27:00,65.5,57.0,29.99,NW,315,4.0,8.0,74,0.00,,,0.00,meteohub,2013-03-13 14:27:00,
2013-03-13 10:32:00,66.4,57.4,29.99,NW,315,3.0,8.0,73,0.00,,,0.00,meteohub,2013-03-13 14:32:00,
2013-03-13 10:37:00,67.6,57.9,29.99,SW,225,3.0,8.0,71,0.00,,,0.00,meteohub,2013-03-13 14:37:00,
2013-03-13 10:42:00,68.9,58.3,29.99,NW,315,2.0,8.0,69,0.00,,,0.00,meteohub,2013-03-13 14:42:00,
2013-03-13 10:47:00,69.3,57.4,29.99,North,0,7.0,7.0,66,0.00,,,0.00,meteohub,2013-03-13 14:47:00,
2013-03-13 10:52:00,68.9,57.9,29.99,WNW,293,8.0,8.0,68,0.00,,,0.00,meteohub,2013-03-13 14:52:00,
2013-03-13 10:57:00,68.2,58.1,30.00,South,180,4.0,8.0,70,0.00,,,0.00,meteohub,2013-03-13 14:57:00,
2013-03-13 11:02:00,68.7,58.1,29.99,North,0,4.0,10.0,69,0.00,,,0.00,meteohub,2013-03-13 15:02:00,
2013-03-13 11:07:00,68.9,57.9,29.99,NW,315,6.0,10.0,68,0.00,,,0.00,meteohub,2013-03-13 15:07:00,
2013-03-13 11:12:00,69.8,58.8,29.99,NW,315,6.0,7.0,68,0.00,,,0.00,meteohub,2013-03-13 15:12:00,
2013-03-13 11:17:00,70.9,59.0,29.99,North,0,4.0,7.0,66,0.00,,,0.00,meteohub,2013-03-13 15:17:00,
2013-03-13 11:23:00,70.7,58.3,29.99,NW,315,8.0,8.0,65,0.00,,,0.00,meteohub,2013-03-13 15:23:00,
2013-03-13 11:28:00,70.3,58.5,29.99,West,270,6.0,11.0,66,0.00,,,0.00,meteohub,2013-03-13 15:28:00,
2013-03-13 11:33:00,71.2,58.5,29.99,NW,315,5.0,11.0,64,0.00,,,0.00,meteohub,2013-03-13 15:33:00,
2013-03-13 11:39:00,71.2,58.8,29.99,North,0,4.0,11.0,65,0.00,,,0.00,meteohub,2013-03-13 15:39:00,
2013-03-13 11:44:00,71.1,58.3,29.99,NW,315,8.0,10.0,64,0.00,,,0.00,meteohub,2013-03-13 15:44:00,
2013-03-13 11:49:00,70.7,58.8,29.99,NW,315,8.0,8.0,66,0.00,,,0.00,meteohub,2013-03-13 15:49:00,
2013-03-13 11:54:00,70.7,58.3,29.99,NW,315,7.0,8.0,65,0.00,,,0.00,meteohub,2013-03-13 15:54:00,
2013-03-13 11:59:00,71.8,58.5,30.00,NNE,23,8.0,8.0,63,0.00,,,0.00,meteohub,2013-03-13 15:59:00,
2013-03-13 12:05:00,73.6,58.8,29.99,North,0,3.0,8.0,60,0.00,,,0.00,meteohub,2013-03-13 16:05:00,
2013-03-13 12:10:00,73.4,58.3,29.99,North,0,7.0,8.0,59,0.00,,,0.00,meteohub,2013-03-13 16:10:00,
2013-03-13 12:15:00,72.9,58.1,29.99,NW,315,4.0,8.0,60,0.00,,,0.00,meteohub,2013-03-13 16:15:00,
2013-03-13 12:20:00,73.4,57.7,29.99,NW,315,10.0,10.0,58,0.00,,,0.00,meteohub,2013-03-13 16:20:00,
2013-03-13 12:25:00,74.1,58.5,29.99,North,0,5.0,10.0,58,0.00,,,0.00,meteohub,2013-03-13 16:25:00,
2013-03-13 12:30:00,73.4,57.7,29.99,NW,315,7.0,11.0,58,0.00,,,0.00,meteohub,2013-03-13 16:30:00,
2013-03-13 12:36:00,74.5,57.7,29.99,NW,315,6.0,11.0,56,0.00,,,0.00,meteohub,2013-03-13 16:36:00,
2013-03-13 12:41:00,75.6,57.7,29.99,North,0,11.0,11.0,54,0.00,,,0.00,meteohub,2013-03-13 16:41:00,
2013-03-13 12:46:00,74.7,56.5,29.99,NW,315,8.0,11.0,53,0.00,,,0.00,meteohub,2013-03-13 16:46:00,
2013-03-13 12:51:00,75.2,57.4,29.98,West,270,8.0,11.0,54,0.00,,,0.00,meteohub,2013-03-13 16:51:00,
2013-03-13 12:57:00,76.1,57.7,29.98,NW,315,7.0,11.0,53,0.00,,,0.00,meteohub,2013-03-13 16:57:00,
2013-03-13 13:02:00,76.8,57.9,29.98,North,0,2.0,9.0,52,0.00,,,0.00,meteohub,2013-03-13 17:02:00,
2013-03-13 13:07:00,77.2,56.5,29.97,NW,315,6.0,9.0,49,0.00,,,0.00,meteohub,2013-03-13 17:07:00,
2013-03-13 13:12:00,76.8,57.4,29.97,NW,315,4.0,9.0,51,0.00,,,0.00,meteohub,2013-03-13 17:12:00,
2013-03-13 13:17:00,77.4,57.2,29.98,North,0,4.0,9.0,50,0.00,,,0.00,meteohub,2013-03-13 17:17:00,
2013-03-13 13:22:00,78.1,56.8,29.97,North,0,12.0,12.0,48,0.00,,,0.00,meteohub,2013-03-13 17:22:00,
2013-03-13 13:27:00,78.3,56.3,29.97,WNW,293,9.0,12.0,47,0.00,,,0.00,meteohub,2013-03-13 17:27:00,
2013-03-13 13:32:00,78.4,55.4,29.97,NE,45,5.0,12.0,45,0.00,,,0.00,meteohub,2013-03-13 17:32:00,
2013-03-13 13:37:00,78.8,56.3,29.97,North,0,9.0,12.0,46,0.00,,,0.00,meteohub,2013-03-13 17:37:00,
2013-03-13 13:42:00,78.1,55.6,29.97,NW,315,9.0,10.0,46,0.00,,,0.00,meteohub,2013-03-13 17:42:00,
2013-03-13 13:47:00,78.1,55.6,29.96,West,270,6.0,11.0,46,0.00,,,0.00,meteohub,2013-03-13 17:47:00,
2013-03-13 13:52:00,78.4,55.4,29.96,North,0,11.0,11.0,45,0.00,,,0.00,meteohub,2013-03-13 17:52:00,
2013-03-13 13:58:00,78.6,54.9,29.96,NW,315,7.0,13.0,44,0.00,,,0.00,meteohub,2013-03-13 17:58:00,
2013-03-13 14:03:00,79.2,55.4,29.95,NW,315,6.0,13.0,44,0.00,,,0.00,meteohub,2013-03-13 18:03:00,
2013-03-13 14:08:00,79.2,55.4,29.95,NW,315,11.0,13.0,44,0.00,,,0.00,meteohub,2013-03-13 18:08:00,
2013-03-13 14:13:00,79.9,55.4,29.96,North,0,12.0,12.0,43,0.00,,,0.00,meteohub,2013-03-13 18:13:00,
2013-03-13 14:18:00,79.7,55.2,29.95,North,0,8.0,12.0,43,0.00,,,0.00,meteohub,2013-03-13 18:18:00,
2013-03-13 14:23:00,80.4,55.2,29.95,NW,315,8.0,12.0,42,0.00,,,0.00,meteohub,2013-03-13 18:23:00,
2013-03-13 14:29:00,80.6,56.1,29.94,NW,315,5.0,12.0,43,0.00,,,0.00,meteohub,2013-03-13 18:29:00,
2013-03-13 14:34:00,80.6,54.7,29.94,North,0,6.0,12.0,41,0.00,,,0.00,meteohub,2013-03-13 18:34:00,
2013-03-13 14:39:00,80.2,55.0,29.94,North,0,4.0,12.0,42,0.00,,,0.00,meteohub,2013-03-13 18:39:00,
2013-03-13 14:44:00,80.8,54.1,29.94,North,0,8.0,12.0,40,0.00,,,0.00,meteohub,2013-03-13 18:44:00,
2013-03-13 14:49:00,79.3,53.6,29.94,North,0,9.0,12.0,41,0.00,,,0.00,meteohub,2013-03-13 18:49:00,
2013-03-13 14:55:00,79.0,54.0,29.94,North,0,4.0,13.0,42,0.00,,,0.00,meteohub,2013-03-13 18:55:00,
2013-03-13 15:00:00,78.8,53.8,29.94,NW,315,8.0,13.0,42,0.00,,,0.00,meteohub,2013-03-13 19:00:00,
2013-03-13 15:05:00,79.0,52.0,29.94,North,0,9.0,13.0,39,0.00,,,0.00,meteohub,2013-03-13 19:05:00,
2013-03-13 15:10:00,79.9,54.1,29.94,North,0,3.0,11.0,41,0.00,,,0.00,meteohub,2013-03-13 19:10:00,
2013-03-13 15:15:00,80.8,52.9,29.94,West,270,8.0,10.0,38,0.00,,,0.00,meteohub,2013-03-13 19:15:00,
2013-03-13 15:20:00,79.9,54.7,29.94,North,0,2.0,11.0,42,0.00,,,0.00,meteohub,2013-03-13 19:20:00,
2013-03-13 15:26:00,80.1,51.4,29.94,North,0,8.0,11.0,37,0.00,,,0.00,meteohub,2013-03-13 19:26:00,
2013-03-13 15:31:00,79.5,51.6,29.93,NW,315,5.0,18.0,38,0.00,,,0.00,meteohub,2013-03-13 19:31:00,
2013-03-13 15:36:00,80.6,51.3,29.93,NW,315,10.0,18.0,36,0.00,,,0.00,meteohub,2013-03-13 19:36:00,
2013-03-13 15:41:00,80.4,51.8,29.93,West,270,6.0,18.0,37,0.00,,,0.00,meteohub,2013-03-13 19:41:00,
2013-03-13 15:46:00,80.1,53.6,29.93,NE,45,4.0,11.0,40,0.00,,,0.00,meteohub,2013-03-13 19:46:00,
2013-03-13 15:52:00,79.7,49.6,29.93,North,0,4.0,11.0,35,0.00,,,0.00,meteohub,2013-03-13 19:52:00,
2013-03-13 15:57:00,80.2,48.6,29.92,North,0,8.0,9.0,33,0.00,,,0.00,meteohub,2013-03-13 19:57:00,
2013-03-13 16:02:00,79.2,48.4,29.93,North,0,6.0,11.0,34,0.00,,,0.00,meteohub,2013-03-13 20:02:00,
2013-03-13 16:07:00,79.3,49.3,29.93,North,0,4.0,11.0,35,0.00,,,0.00,meteohub,2013-03-13 20:07:00,
2013-03-13 16:12:00,79.5,49.5,29.93,North,0,5.0,11.0,35,0.00,,,0.00,meteohub,2013-03-13 20:12:00,
2013-03-13 16:17:00,79.5,49.5,29.93,North,0,5.0,10.0,35,0.00,,,0.00,meteohub,2013-03-13 20:17:00,
2013-03-13 16:22:00,79.9,48.2,29.93,North,0,9.0,9.0,33,0.00,,,0.00,meteohub,2013-03-13 20:22:00,
2013-03-13 16:27:00,79.7,48.9,29.93,North,0,4.0,9.0,34,0.00,,,0.00,meteohub,2013-03-13 20:27:00,
2013-03-13 16:32:00,80.8,49.8,29.93,NW,315,3.0,11.0,34,0.00,,,0.00,meteohub,2013-03-13 20:32:00,
2013-03-13 16:37:00,81.5,48.7,29.92,NW,315,8.0,11.0,32,0.00,,,0.00,meteohub,2013-03-13 20:37:00,
2013-03-13 16:42:00,80.6,48.9,29.92,NW,315,3.0,11.0,33,0.00,,,0.00,meteohub,2013-03-13 20:42:00,
2013-03-13 16:47:00,80.4,49.5,29.92,North,0,4.0,8.0,34,0.00,,,0.00,meteohub,2013-03-13 20:47:00,
2013-03-13 16:52:00,80.8,48.2,29.91,North,0,8.0,8.0,32,0.00,,,0.00,meteohub,2013-03-13 20:52:00,
2013-03-13 16:57:00,80.8,48.2,29.92,NW,315,4.0,8.0,32,0.00,,,0.00,meteohub,2013-03-13 20:57:00,
2013-03-13 17:02:00,80.8,49.8,29.92,North,0,2.0,8.0,34,0.00,,,0.00,meteohub,2013-03-13 21:02:00,
2013-03-13 17:07:00,80.8,48.2,29.92,North,0,8.0,8.0,32,0.00,,,0.00,meteohub,2013-03-13 21:07:00,
2013-03-13 17:12:00,80.2,47.7,29.92,North,0,7.0,8.0,32,0.00,,,0.00,meteohub,2013-03-13 21:12:00,
2013-03-13 17:17:00,80.2,46.9,29.92,NW,315,5.0,9.0,31,0.00,,,0.00,meteohub,2013-03-13 21:17:00,
2013-03-13 17:22:00,80.8,47.3,29.92,NW,315,3.0,9.0,31,0.00,,,0.00,meteohub,2013-03-13 21:22:00,
2013-03-13 17:27:00,82.2,46.8,29.92,North,0,4.0,9.0,29,0.00,,,0.00,meteohub,2013-03-13 21:27:00,
2013-03-13 17:32:00,82.0,46.6,29.92,North,0,4.0,8.0,29,0.00,,,0.00,meteohub,2013-03-13 21:32:00,
2013-03-13 17:37:00,82.4,47.8,29.93,North,0,4.0,10.0,30,0.00,,,0.00,meteohub,2013-03-13 21:37:00,
2013-03-13 17:42:00,82.8,47.3,29.92,SE,135,3.0,10.0,29,0.00,,,0.00,meteohub,2013-03-13 21:42:00,
2013-03-13 17:47:00,82.4,46.9,29.93,North,0,3.0,10.0,29,0.00,,,0.00,meteohub,2013-03-13 21:47:00,
2013-03-13 17:52:00,82.0,44.8,29.93,North,0,8.0,8.0,27,0.00,,,0.00,meteohub,2013-03-13 21:52:00,
2013-03-13 17:57:00,81.7,47.3,29.93,North,0,4.0,8.0,30,0.00,,,0.00,meteohub,2013-03-13 21:57:00,
2013-03-13 18:02:00,81.9,46.4,29.93,NW,315,2.0,8.0,29,0.00,,,0.00,meteohub,2013-03-13 22:02:00,
2013-03-13 18:07:00,80.8,46.4,29.93,West,270,5.0,8.0,30,0.00,,,0.00,meteohub,2013-03-13 22:07:00,
2013-03-13 18:13:00,81.0,47.5,29.92,North,0,4.0,8.0,31,0.00,,,0.00,meteohub,2013-03-13 22:13:00,
2013-03-13 18:18:00,81.0,46.6,29.93,North,0,3.0,8.0,30,0.00,,,0.00,meteohub,2013-03-13 22:18:00,
2013-03-13 18:23:00,80.1,45.9,29.93,NW,315,3.0,7.0,30,0.00,,,0.00,meteohub,2013-03-13 22:23:00,
2013-03-13 18:28:00,79.5,46.2,29.94,NW,315,2.0,8.0,31,0.00,,,0.00,meteohub,2013-03-13 22:28:00,
2013-03-13 18:34:00,79.2,45.1,29.93,West,270,4.0,8.0,30,0.00,,,0.00,meteohub,2013-03-13 22:34:00,
2013-03-13 18:39:00,78.1,44.1,29.94,North,0,3.0,8.0,30,0.00,,,0.00,meteohub,2013-03-13 22:39:00,
2013-03-13 18:44:00,76.8,43.9,29.94,North,0,4.0,7.0,31,0.00,,,0.00,meteohub,2013-03-13 22:44:00,
2013-03-13 18:49:00,76.3,44.2,29.94,NW,315,2.0,7.0,32,0.00,,,0.00,meteohub,2013-03-13 22:49:00,
2013-03-13 18:54:00,76.3,44.2,29.94,South,180,2.0,8.0,32,0.00,,,0.00,meteohub,2013-03-13 22:54:00,
2013-03-13 18:59:00,75.2,42.4,29.94,NW,315,3.0,8.0,31,0.00,,,0.00,meteohub,2013-03-13 22:59:00,
2013-03-13 19:04:00,73.0,43.7,29.95,NW,315,2.0,5.0,35,0.00,,,0.00,meteohub,2013-03-13 23:04:00,
2013-03-13 19:10:00,71.8,45.5,29.94,North,0,3.0,5.0,39,0.00,,,0.00,meteohub,2013-03-13 23:10:00,
2013-03-13 19:15:00,71.1,46.2,29.94,NW,315,1.0,5.0,41,0.00,,,0.00,meteohub,2013-03-13 23:15:00,
2013-03-13 19:20:00,70.3,47.5,29.94,NW,315,1.0,3.0,44,0.00,,,0.00,meteohub,2013-03-13 23:20:00,
2013-03-13 19:26:00,69.6,46.8,29.95,NE,45,1.0,3.0,44,0.00,,,0.00,meteohub,2013-03-13 23:26:00,
2013-03-13 19:31:00,69.1,51.8,29.95,NE,45,5.0,5.0,54,0.00,,,0.00,meteohub,2013-03-13 23:31:00,
2013-03-13 19:36:00,68.7,52.9,29.95,East,90,1.0,5.0,57,0.00,,,0.00,meteohub,2013-03-13 23:36:00,
2013-03-13 19:41:00,68.4,53.4,29.95,NE,45,1.0,5.0,59,0.00,,,0.00,meteohub,2013-03-13 23:41:00,
2013-03-13 19:46:00,68.0,53.6,29.95,East,90,2.0,5.0,60,0.00,,,0.00,meteohub,2013-03-13 23:46:00,
2013-03-13 19:51:00,67.5,54.0,29.95,NE,45,2.0,4.0,62,0.00,,,0.00,meteohub,2013-03-13 23:51:00,
2013-03-13 19:57:00,67.1,53.6,29.96,East,90,2.0,4.0,62,0.00,,,0.00,meteohub,2013-03-13 23:57:00,
2013-03-13 20:02:00,66.7,52.9,29.96,East,90,2.0,2.0,61,0.00,,,0.00,meteohub,2013-03-14 00:02:00,
2013-03-13 20:07:00,66.6,52.7,29.96,East,90,1.0,4.0,61,0.00,,,0.00,meteohub,2013-03-14 00:07:00,
2013-03-13 20:12:00,66.2,52.0,29.96,East,90,1.0,4.0,60,0.00,,,0.00,meteohub,2013-03-14 00:12:00,
2013-03-13 20:17:00,65.8,51.1,29.96,East,90,1.0,2.0,59,0.00,,,0.00,meteohub,2013-03-14 00:17:00,
2013-03-13 20:23:00,65.8,50.7,29.97,East,90,1.0,2.0,58,0.00,,,0.00,meteohub,2013-03-14 00:23:00,
2013-03-13 20:28:00,65.7,50.0,29.97,East,90,2.0,5.0,57,0.00,,,0.00,meteohub,2013-03-14 00:28:00,
2013-03-13 20:33:00,65.3,49.6,29.97,NE,45,1.0,5.0,57,0.00,,,0.00,meteohub,2013-03-14 00:33:00,
2013-03-13 20:39:00,64.9,49.3,29.97,East,90,0.0,2.0,57,0.00,,,0.00,meteohub,2013-03-14 00:39:00,
2013-03-13 20:44:00,64.6,49.5,29.97,East,90,1.0,2.0,58,0.00,,,0.00,meteohub,2013-03-14 00:44:00,
2013-03-13 20:49:00,64.0,49.5,29.97,East,90,0.0,2.0,59,0.00,,,0.00,meteohub,2013-03-14 00:49:00,
2013-03-13 20:54:00,63.3,48.7,29.97,East,90,0.0,2.0,59,0.00,,,0.00,meteohub,2013-03-14 00:54:00,
2013-03-13 20:59:00,62.8,48.7,29.97,East,90,0.0,1.0,60,0.00,,,0.00,meteohub,2013-03-14 00:59:00,
2013-03-13 21:04:00,62.2,48.6,29.97,East,90,0.0,1.0,61,0.00,,,0.00,meteohub,2013-03-14 01:04:00,
2013-03-13 21:09:00,61.7,48.9,29.97,East,90,0.0,1.0,63,0.00,,,0.00,meteohub,2013-03-14 01:09:00,
2013-03-13 21:15:00,61.2,48.4,29.97,East,90,0.0,0.0,63,0.00,,,0.00,meteohub,2013-03-14 01:15:00,
2013-03-13 21:20:00,61.0,49.1,29.98,East,90,1.0,0.0,65,0.00,,,0.00,meteohub,2013-03-14 01:20:00,
2013-03-13 21:25:00,61.2,49.6,29.98,East,90,0.0,1.0,66,0.00,,,0.00,meteohub,2013-03-14 01:25:00,
2013-03-13 21:30:00,61.2,49.6,29.98,East,90,0.0,1.0,66,0.00,,,0.00,meteohub,2013-03-14 01:30:00,
2013-03-13 21:35:00,61.2,49.6,29.99,NW,315,1.0,1.0,66,0.00,,,0.00,meteohub,2013-03-14 01:35:00,
2013-03-13 21:40:00,61.2,49.3,29.99,West,270,1.0,1.0,65,0.00,,,0.00,meteohub,2013-03-14 01:40:00,
2013-03-13 21:45:00,61.0,49.1,29.99,West,270,1.0,1.0,65,0.00,,,0.00,meteohub,2013-03-14 01:45:00,
2013-03-13 21:51:00,61.0,49.1,29.99,West,270,1.0,1.0,65,0.00,,,0.00,meteohub,2013-03-14 01:51:00,
2013-03-13 21:56:00,61.0,49.1,29.99,West,270,1.0,1.0,65,0.00,,,0.00,meteohub,2013-03-14 01:56:00,
2013-03-13 22:01:00,61.0,49.1,29.99,West,270,1.0,1.0,65,0.00,,,0.00,meteohub,2013-03-14 02:01:00,
2013-03-13 22:06:00,60.8,48.9,29.99,West,270,1.0,1.0,65,0.00,,,0.00,meteohub,2013-03-14 02:06:00,
2013-03-13 22:12:00,60.8,49.5,29.99,West,270,0.0,1.0,66,0.00,,,0.00,meteohub,2013-03-14 02:12:00,
2013-03-13 22:17:00,60.6,49.3,30.00,West,270,0.0,1.0,66,0.00,,,0.00,meteohub,2013-03-14 02:17:00,
2013-03-13 22:22:00,60.4,49.1,29.99,West,270,1.0,1.0,66,0.00,,,0.00,meteohub,2013-03-14 02:22:00,
2013-03-13 22:27:00,60.4,49.5,30.00,West,270,1.0,1.0,67,0.00,,,0.00,meteohub,2013-03-14 02:27:00,
2013-03-13 22:32:00,60.6,49.6,30.00,NW,315,1.0,3.0,67,0.00,,,0.00,meteohub,2013-03-14 02:32:00,
2013-03-13 22:38:00,60.6,49.6,30.00,NW,315,1.0,3.0,67,0.00,,,0.00,meteohub,2013-03-14 02:38:00,
2013-03-13 22:43:00,60.4,49.8,30.00,North,0,1.0,3.0,68,0.00,,,0.00,meteohub,2013-03-14 02:43:00,
2013-03-13 22:48:00,60.4,49.8,30.00,North,0,1.0,1.0,68,0.00,,,0.00,meteohub,2013-03-14 02:48:00,
2013-03-13 22:53:00,60.4,49.8,30.00,NW,315,0.0,2.0,68,0.00,,,0.00,meteohub,2013-03-14 02:53:00,
2013-03-13 22:59:00,60.4,50.2,30.01,NW,315,0.0,2.0,69,0.00,,,0.00,meteohub,2013-03-14 02:59:00,
2013-03-13 23:04:00,60.3,50.4,30.00,NW,315,0.0,2.0,70,0.00,,,0.00,meteohub,2013-03-14 03:04:00,
2013-03-13 23:09:00,59.9,50.5,30.01,NW,315,0.0,2.0,71,0.00,,,0.00,meteohub,2013-03-14 03:09:00,
2013-03-13 23:14:00,59.7,50.4,30.01,West,270,0.0,1.0,71,0.00,,,0.00,meteohub,2013-03-14 03:14:00,
2013-03-13 23:20:00,59.7,50.4,30.01,West,270,0.0,0.0,71,0.00,,,0.00,meteohub,2013-03-14 03:20:00,
2013-03-13 23:25:00,59.7,50.4,30.01,West,270,0.0,0.0,71,0.00,,,0.00,meteohub,2013-03-14 03:25:00,
2013-03-13 23:30:00,59.5,50.2,30.01,West,270,0.0,0.0,71,0.00,,,0.00,meteohub,2013-03-14 03:30:00,
2013-03-13 23:35:00,59.4,50.4,30.00,West,270,0.0,0.0,72,0.00,,,0.00,meteohub,2013-03-14 03:35:00,
2013-03-13 23:40:00,59.2,50.2,30.01,West,270,0.0,0.0,72,0.00,,,0.00,meteohub,2013-03-14 03:40:00,
2013-03-13 23:45:00,59.0,50.7,30.00,West,270,0.0,0.0,74,0.00,,,0.00,meteohub,2013-03-14 03:45:00,
2013-03-13 23:50:00,58.8,50.9,30.01,West,270,0.0,0.0,75,0.00,,,0.00,meteohub,2013-03-14 03:50:00,
2013-03-13 23:56:00,58.6,50.7,30.01,West,270,0.0,0.0,75,0.00,,,0.00,meteohub,2013-03-14 03:56:00,